• Em Portugal
  • Lista de países
  • Para 7 dias
  • Temperatura da água
  • Mapas de satélite
  • Mapa do tempo
  • Widgets de tempo
  • user-avatar
    Iniciar Sessão

    Previsão horária em Slobodka

    Hoje, 20 Setembro, Quinta-feira

    Tempo Temperatura Precipitação Vento Pressão Humidade
    00:00 +16°C° 0 mm 3 m/s 748 mmHg 84%
    01:00 +16°C° 0 mm 3 m/s 748 mmHg 86%
    02:00 +15°C° 0 mm 2 m/s 748 mmHg 87%
    03:00 +15°C° 0 mm 2 m/s 748 mmHg 88%
    04:00 +15°C° 0 mm 2 m/s 748 mmHg 90%
    05:00 +14°C° 0 mm 3 m/s 748 mmHg 91%
    06:00 +16°C° 0 mm 3 m/s 748 mmHg 86%
    07:00 +18°C° 0 mm 3 m/s 748 mmHg 81%
    08:00 +19°C° 0 mm 4 m/s 748 mmHg 76%
    09:00 +21°C° 0 mm 4 m/s 748 mmHg 71%
    10:00 +23°C° 0 mm 4 m/s 748 mmHg 66%
    11:00 +25°C° 0 mm 5 m/s 748 mmHg 61%
    12:00 +26°C° 0 mm 5 m/s 748 mmHg 59%
    13:00 +26°C° 0 mm 5 m/s 748 mmHg 57%
    14:00 +27°C° 0 mm 5 m/s 748 mmHg 56%
    15:00 +26°C° 0 mm 4 m/s 748 mmHg 61%
    16:00 +25°C° 0 mm 3 m/s 748 mmHg 66%
    17:00 +24°C° 0 mm 3 m/s 748 mmHg 71%
    18:00 +22°C° 0 mm 3 m/s 748 mmHg 76%
    19:00 +20°C° 0 mm 3 m/s 748 mmHg 80%
    20:00 +19°C° 0 mm 2 m/s 748 mmHg 85%
    21:00 +19°C° 0 mm 2 m/s 748 mmHg 87%
    22:00 +18°C° 0 mm 2 m/s 748 mmHg 88%
    23:00 +18°C° 0 mm 2 m/s 748 mmHg 90%

    Amanhã, 21 Setembro, Sexta-feira

    Tempo Temperatura Precipitação Vento Pressão Humidade
    00:00 +17°C° 0 mm 2 m/s 749 mmHg 90%
    01:00 +18°C° 0 mm 1 m/s 749 mmHg 90%
    02:00 +16°C° 0 mm 1 m/s 749 mmHg 91%
    03:00 +16°C° 0 mm 1 m/s 749 mmHg 91%
    04:00 +16°C° 0 mm 1 m/s 749 mmHg 91%
    05:00 +15°C° 0 mm 1 m/s 749 mmHg 91%
    06:00 +18°C° 0 mm 1 m/s 749 mmHg 85%
    07:00 +19°C° 0 mm 1 m/s 750 mmHg 80%
    08:00 +20°C° 0 mm 1 m/s 750 mmHg 74%
    09:00 +22°C° 0 mm 1 m/s 750 mmHg 67%
    10:00 +24°C° 0 mm 1 m/s 750 mmHg 59%
    11:00 +25°C° 0 mm 1 m/s 750 mmHg 52%
    12:00 +26°C° 0 mm 1 m/s 750 mmHg 49%
    13:00 +26°C° 0 mm 1 m/s 750 mmHg 46%
    14:00 +25°C° 0 mm 0 m/s 750 mmHg 43%
    15:00 +24°C° 0 mm 0 m/s 750 mmHg 47%
    16:00 +23°C° 0 mm 0 m/s 749 mmHg 51%
    17:00 +24°C° 0 mm 1 m/s 749 mmHg 55%
    18:00 +23°C° 0 mm 1 m/s 749 mmHg 56%
    19:00 +21°C° 0 mm 1 m/s 749 mmHg 58%
    20:00 +20°C° 0 mm 1 m/s 749 mmHg 59%
    21:00 +19°C° 0 mm 2 m/s 749 mmHg 61%
    22:00 +18°C° 0 mm 2 m/s 749 mmHg 62%
    23:00 +18°C° 0 mm 2 m/s 749 mmHg 63%

    Depois de amanhã, 22 Setembro, Sábado

    Tempo Temperatura Precipitação Vento Pressão Humidade
    00:00 +18°C° 0 mm 2 m/s 749 mmHg 65%
    01:00 +17°C° 0 mm 2 m/s 749 mmHg 66%
    02:00 +17°C° 0 mm 2 m/s 749 mmHg 68%
    03:00 +17°C° 0 mm 2 m/s 749 mmHg 69%
    04:00 +16°C° 0 mm 2 m/s 749 mmHg 71%
    05:00 +16°C° 0 mm 2 m/s 749 mmHg 72%
    06:00 +17°C° 0 mm 3 m/s 748 mmHg 69%
    07:00 +19°C° 0 mm 3 m/s 748 mmHg 66%
    08:00 +20°C° 0 mm 4 m/s 748 mmHg 63%
    09:00 +22°C° 0 mm 4 m/s 748 mmHg 59%
    10:00 +25°C° 0 mm 4 m/s 748 mmHg 54%
    11:00 +26°C° 0 mm 5 m/s 748 mmHg 49%
    12:00 +27°C° 0 mm 5 m/s 747 mmHg 48%
    13:00 +27°C° 0 mm 5 m/s 747 mmHg 46%
    14:00 +28°C° 0 mm 5 m/s 746 mmHg 44%
    15:00 +27°C° 0 mm 5 m/s 746 mmHg 49%
    16:00 +25°C° 0 mm 4 m/s 745 mmHg 53%
    17:00 +24°C° 0 mm 3 m/s 745 mmHg 57%
    18:00 +24°C° 0 mm 3 m/s 745 mmHg 58%
    19:00 +22°C° 0 mm 3 m/s 744 mmHg 59%
    20:00 +21°C° 0 mm 4 m/s 744 mmHg 60%
    21:00 +20°C° 0 mm 4 m/s 744 mmHg 60%
    22:00 +20°C° 0 mm 4 m/s 743 mmHg 60%
    23:00 +19°C° 0 mm 4 m/s 743 mmHg 60%

    23 Setembro, Domingo

    Tempo Temperatura Precipitação Vento Pressão Humidade
    00:00 +19°C° 0.1 mm 4 m/s 743 mmHg 62%
    01:00 +18°C° 0.1 mm 4 m/s 742 mmHg 64%
    02:00 +18°C° 0.1 mm 3 m/s 742 mmHg 66%
    03:00 +17°C° 0.4 mm 4 m/s 742 mmHg 71%
    04:00 +15°C° 0.4 mm 4 m/s 742 mmHg 77%
    05:00 +14°C° 0.4 mm 4 m/s 741 mmHg 82%
    06:00 +13°C° 1 mm 5 m/s 742 mmHg 84%
    07:00 +11°C° 1 mm 6 m/s 742 mmHg 86%
    08:00 +9°C° 1 mm 7 m/s 742 mmHg 88%
    09:00 +9°C° 1 mm 6 m/s 742 mmHg 86%
    10:00 +9°C° 1 mm 6 m/s 743 mmHg 84%
    11:00 +9°C° 1 mm 6 m/s 744 mmHg 82%
    12:00 +9°C° 0 mm 6 m/s 744 mmHg 80%
    13:00 +10°C° 0 mm 6 m/s 744 mmHg 78%
    14:00 +11°C° 0 mm 6 m/s 744 mmHg 76%
    15:00 +12°C° 0 mm 5 m/s 744 mmHg 75%
    16:00 +12°C° 0 mm 4 m/s 745 mmHg 75%
    17:00 +13°C° 0 mm 2 m/s 745 mmHg 74%
    18:00 +11°C° 0 mm 3 m/s 745 mmHg 76%
    19:00 +10°C° 0 mm 3 m/s 745 mmHg 78%
    20:00 +10°C° 0 mm 3 m/s 745 mmHg 81%
    21:00 +9°C° 0 mm 3 m/s 745 mmHg 81%
    22:00 +9°C° 0 mm 3 m/s 745 mmHg 81%
    23:00 +9°C° 0 mm 3 m/s 745 mmHg 82%

    24 Setembro, Segunda-feira

    Tempo Temperatura Precipitação Vento Pressão Humidade
    00:00 +9°C° 0 mm 3 m/s 745 mmHg 82%
    01:00 +8°C° 0 mm 3 m/s 745 mmHg 82%
    02:00 +8°C° 0 mm 3 m/s 745 mmHg 82%
    03:00 +8°C° 0 mm 3 m/s 745 mmHg 81%
    04:00 +9°C° 0 mm 3 m/s 744 mmHg 80%
    05:00 +8°C° 0 mm 4 m/s 744 mmHg 78%
    06:00 +10°C° 0.1 mm 4 m/s 744 mmHg 76%
    07:00 +9°C° 0.1 mm 5 m/s 743 mmHg 74%
    08:00 +10°C° 0.1 mm 6 m/s 743 mmHg 71%
    09:00 +10°C° 0.8 mm 7 m/s 742 mmHg 73%
    10:00 +10°C° 0.8 mm 8 m/s 741 mmHg 75%
    11:00 +10°C° 0.8 mm 9 m/s 740 mmHg 77%
    12:00 +10°C° 0.8 mm 9 m/s 739 mmHg 76%
    13:00 +11°C° 0.8 mm 9 m/s 738 mmHg 75%
    14:00 +11°C° 0.8 mm 9 m/s 737 mmHg 75%
    15:00 +11°C° 0.5 mm 9 m/s 736 mmHg 76%
    16:00 +12°C° 0.5 mm 10 m/s 736 mmHg 78%
    17:00 +12°C° 0.5 mm 10 m/s 735 mmHg 80%
    18:00 +11°C° 1.4 mm 9 m/s 735 mmHg 81%
    19:00 +11°C° 1.4 mm 9 m/s 734 mmHg 82%
    20:00 +10°C° 1.4 mm 9 m/s 734 mmHg 84%
    21:00 +8°C° 0.3 mm 10 m/s 734 mmHg 82%
    22:00 +7°C° 0.3 mm 10 m/s 734 mmHg 80%
    23:00 +7°C° 0.3 mm 10 m/s 734 mmHg 78%

    25 Setembro, Terça-feira

    Tempo Temperatura Precipitação Vento Pressão Humidade
    00:00 +7°C° 0 mm 10 m/s 735 mmHg 76%
    01:00 +7°C° 0 mm 10 m/s 735 mmHg 75%
    02:00 +7°C° 0 mm 10 m/s 736 mmHg 73%
    03:00 +6°C° 0 mm 10 m/s 736 mmHg 73%
    04:00 +6°C° 0 mm 10 m/s 737 mmHg 72%
    05:00 +6°C° 0 mm 10 m/s 738 mmHg 71%
    06:00 +6°C° 0 mm 10 m/s 739 mmHg 70%
    07:00 +6°C° 0 mm 10 m/s 739 mmHg 69%
    08:00 +6°C° 0 mm 10 m/s 740 mmHg 68%
    09:00 +6°C° 0 mm 10 m/s 741 mmHg 67%
    10:00 +6°C° 0 mm 10 m/s 741 mmHg 66%
    11:00 +6°C° 0 mm 9 m/s 742 mmHg 66%
    12:00 +6°C° 0 mm 9 m/s 743 mmHg 64%
    13:00 +7°C° 0 mm 9 m/s 743 mmHg 62%
    14:00 +7°C° 0 mm 8 m/s 744 mmHg 59%
    15:00 +7°C° 0.1 mm 8 m/s 744 mmHg 60%
    16:00 +6°C° 0.1 mm 7 m/s 745 mmHg 61%
    17:00 +7°C° 0.1 mm 6 m/s 745 mmHg 62%
    18:00 +6°C° 0 mm 5 m/s 746 mmHg 64%
    19:00 +5°C° 0 mm 5 m/s 746 mmHg 66%
    20:00 +5°C° 0 mm 5 m/s 747 mmHg 68%
    21:00 +4°C° 0 mm 4 m/s 747 mmHg 69%
    22:00 +4°C° 0 mm 4 m/s 748 mmHg 70%
    23:00 +3°C° 0 mm 4 m/s 748 mmHg 71%
    Mostrar mais